{"data":{"norad_id":52882,"epoch":"2026-05-25T02:41:15.930816Z","epoch_age_seconds":75413,"freshness":"FRESH","line1":"1 52882U 22062BE  26145.11198994 -.00000500  00000+0 -13364-4 0  9994","line2":"2 52882  53.2137  30.6194 0001327  57.8940 302.2181 15.08829712217614","mean_motion":15.08829712,"eccentricity":0.0001327,"inclination_deg":53.2137,"raan_deg":30.6194,"arg_perigee_deg":57.894,"mean_anomaly_deg":302.2181,"bstar":-1.3364e-5,"rev_number":21761,"period_min":95.438205421554,"perigee_km":538.85682854244,"apogee_km":540.69284234357,"semimajor_km":6917.911835443,"source":"CELESTRAK","updated_at":"2026-05-25T13:38:17.271989Z"}}